map of PBH home
PBH - Airport
Location
City:  Paro, Bhutan
Name:Paro International Airport
ICAO:VQPR
IATA:PBH

Details
Type:Airport (Aerodrome, Airfield)
Use:Public/Civil, International (customs port of entry)
Latitude:27°24'12"N (27.403464)
Longitude:89°25'30"E (89.424875)
Elevation:7352 ft (2241 m)
Variation:0.14°E (WMM2015 magnetic declination)
0.04° annual change
Runways:1
Longest:7431 × 98 ft (2265 × 30 m), paved

Time
Time Zone:UTC+5:30
Local Time:

Weather
METAR:VQPR 211130Z 16010KT 9999 SCT030 BKN080 23/09 Q1016

Related Locations
Nearby:
Farthest:SCFX: 11795 mi / 18982 km
Isla San Félix, Desventuradas Islands, VS, CL

Find:

   beyond  
but within

Other Information
Maps:
NOTAMs:
Links:
Sources:

  
flag of Bhutan   

Sectional Chart

Flight Planning
at skyvector.com

Satellite Image

Google Maps Satellite view

 

Copyright © 2004-2018 Karl L. Swartz. All rights reserved.
The Great Circle Mapper name and logo are trademarks of the Great Circle Mapper.
All other trademarks mentioned herein belong to their respective owners.
Please see credits for attibutions and further copyright information.

  Follow gcmap on Facebook Follow gcmap on Twitter Follow gcmap on Google+ GCmap on LinkedIn

hCard Microformat

Geo Microformat